Location: Heiligenberg
(48.5381°N, 7.3897°E)
Time: 23:14:28
(UTC+00:00)

Cosmos 292 Rocket - Pass Details

Date: 26 May 2022
Orbit: 674 x 692 km, 74.0° (Epoch: 02 July)

Event Time Altitude Azimuth Distance (km) Brightness Sun altitude
Exits shadow 01:48:19 16° 182° (S) 1,763 5.4 -13.6°
Maximum altitude 01:52:02 56° 108° (ESE) 812 4.2 -13.2°
Drops below altitude 10° 01:56:44 10° 30° (NNE) 2,131 7.8 -12.8°
Sets 01:59:04 0° 27° (NNE) 3,048 9.0 -12.6°
